Preview of NWS' New Version of Forecast
This preview is not operational and should not be used for support decisions.

Regional Weather Roundup (RWR)

Issued by National Weather Service (NWS)

                            
000
ASUS45 KBOU 211110
RWRCO 

WEATHER ROUNDUP FOR COLORADO
NATIONAL WEATHER SERVICE DENVER/BOULDER CO
500 AM MDT SUN APR 21 2019

NOTE: "FAIR" INDICATES FEW OR NO CLOUDS BELOW 12000 FEET WITH NO
SIGNIFICANT WEATHER AND/OR OBSTRUCTIONS TO VISIBILITY.

COZ001>005-013-030-031-211200-
...NORTHWEST COLORADO...
  
CITY           SKY/WX    TMP DP  RH WIND       PRES   REMARKS
CRAIG          FAIR      34  28  79 CALM      29.86S                  
HAYDEN         FAIR      40  29  64 NE5       29.88S                  
MEEKER         CLOUDY    40  31  70 NE5       29.87R                  
RANGELY        FAIR      45  32  60 E9        29.82S                  
RABBIT EARS PA NOT AVBL                                               
STEAMBOAT SPGS FAIR      38  30  71 CALM      29.89S                  
WALDEN         FAIR      34  28  80 SE6       29.94S WCI  29          
$$

COZ006>008-011-211200-
...WEST CENTRAL VALLEYS...
  
CITY           SKY/WX    TMP DP  RH WIND       PRES   REMARKS
GRAND JUNCTION MOCLDY    51  34  52 S6        29.83R                  
MONTROSE       MOCLDY    49  30  48 NE7       29.89F                  
EAGLE          FAIR      36  29  75 CALM      29.94S                  
RIFLE          FAIR      40  32  73 SE3       29.86R                  
DELTA          MOCLDY    48  34  58 NE9       29.87F                  
NUCLA          MOCLDY    50  28  43 CALM      29.93R                  
$$

COZ017>023-064>068-211200-
...SOUTHWEST COLORADO...
  
CITY           SKY/WX    TMP DP  RH WIND       PRES   REMARKS
DURANGO        CLOUDY    35  26  69 CALM      29.98R                  
CORTEZ         CLOUDY    53  28  38 W10       29.94R                  
PAGOSA SPRINGS FAIR      33  28  83 CALM      30.01R                  
TELLURIDE      CLOUDY    37  32  81 E5        30.05S                  
WOLF CREEK PAS FAIR      27  23  86 S10       30.16S WCI  17          
$$

COZ009-010-012-014-032>034-037-058>063-211200-
...CENTRAL COLORADO...
  
CITY           SKY/WX    TMP DP  RH WIND       PRES   REMARKS
ASPEN          FAIR      36  25  64 SW6       29.92F                  
BUENA VISTA    FAIR      32  24  73 CALM      29.96S                  
COPPER MTN     FAIR      34  21  60 MISG      30.09S                  
BERTHOUD PASS  FAIR      27  16  63 NW23      30.08S WCI  12          
COTTONWOOD PAS FAIR      39  23  52 N5        30.02S                  
GUNNISON       MOCLDY    29  28  96 CALM      30.01R                  
GRANBY         PTSUNNY   33  29  87 CALM      29.97S                  
KREMMLING      MOCLDY    37  32  81 SE3       29.94S                  
LEADVILLE      FAIR      28  21  75 CALM      30.00F                  
MONARCH PASS   FAIR      30  21  69 W23       30.20R WCI  17          
SALIDA         FAIR      39  27  62 N6        30.02S                  
SUNLIGHT       FAIR      30  21  69 SW9       30.07S WCI  22          
WILKERSON PASS FAIR      32  19  59 W8        30.08S WCI  25          
$$

COZ069>075-211200-
...SAN LUIS VALLEY/SANGRE DE CRISTO MOUNTAINS...
  
CITY           SKY/WX    TMP DP  RH WIND       PRES   REMARKS
ALAMOSA        FAIR      30  26  85 N5        29.98S WCI  25          
DEL NORTE      FAIR      30  23  75 W3        30.00S                  
LA VETA PASS   NOT AVBL                                               
SAGUACHE       MOCLDY    32  27  80 CALM      30.00S                  
$$

COZ035-036-038>040-211200-
...NORTHERN COLORADO FRONT RANGE...
  
CITY           SKY/WX    TMP DP  RH WIND       PRES   REMARKS
DENVER INTL AP MOCLDY    58  33  39 N21       29.80S                  
AURORA         MOCLDY    54  32  43 N14       29.80R                  
FRONT RANGE AP CLOUDY    58  33  38 N16       29.80R                  
ERIE MUNI ARPT CLOUDY    60  30  32 NE16      29.84R                  
BOULDER MUN AP CLOUDY    59  30  33 E5        29.79R                  
CENTENNIAL     MOCLDY    55  29  36 NW6       29.81R                  
BROOMFIELD     FAIR      57  30  35 NE13      29.82R                  
FORT COLLINS   CLOUDY    59  34  39 N8        29.81R                  
LONGMONT       CLOUDY    62  32  32 E10G16    29.81R                  
$$

COZ041-046-047-076>085-087-088-211200-
...PIKES PEAK/PALMER DIVIDE AND SOUTHERN FOOTHILLS...
  
CITY           SKY/WX    TMP DP  RH WIND       PRES   REMARKS
COLO. SPRINGS  FAIR      59  23  25 NW18G26   29.81S                  
A. F. ACADEMY  FAIR      52  23  33 N14G20    29.82R                  
SCHRIEVER AFB  NOT AVBL                                               
CHEYENNE MTN   FAIR      55  18  23 W8        29.79S                  
ELLICOTT         N/A    N/A N/A N/A N6        29.80R                  
FALCON         FAIR      50  22  33 NW15G21   29.85S                  
FORT CARSON    FAIR      53  24  32 CALM      29.80S                  
LIMON          FAIR      45  33  63 NW12      29.76R                  
MONUMENT HILL  FAIR      37  28  70 NW6       29.87S                  
CANON CITY     NOT AVBL                                               
WALSENBURG     NOT AVBL                                               
TRINIDAD       FAIR      42  25  50 W9        29.85S                  
$$

COZ042>045-048>051-090-091-211200-
...NORTHEAST COLORADO...
  
CITY           SKY/WX    TMP DP  RH WIND       PRES   REMARKS
GREELEY ARPT   FAIR      61  34  36 VRB6      29.79R                  
AKRON          FAIR      57  35  43 NW17G26   29.70F                  
BURLINGTON     FAIR      49  31  49 W10       29.66R                  
WRAY           FAIR      52  34  50 W10       29.63S                  
YUMA           NOT AVBL                                               
STERLING       MOCLDY    55  41  58 N10       29.71R                  
HOLYOKE        FAIR      54  45  71 NE6       29.65R                  
FORT MORGAN    NOT AVBL                                               
$$

COZ086-089-092>099-211200-
...SOUTHEAST COLORADO...
  
CITY           SKY/WX    TMP DP  RH WIND       PRES   REMARKS
PUEBLO         FAIR      53  29  39 NW13      29.75R                  
LA JUNTA       FAIR      54  31  41 SW17      29.73R                  
LAMAR          FAIR      53  33  46 W15       29.67S                  
SPRINGFIELD      N/A     46  30  53 W6        29.74S                  
$$